Location: Dugenta
(41.1333°N, 14.4500°E)
Time: 07:43:04
(UTC+00:00)

Daily predictions for brighter satellites

Satellite Brightness Start Highest point End
(mag) Time Altitude Azimuth Time Altitude Azimuth Time Altitude Azimuth
Okean 3 Rocket 3.8 15:54:13 10° N 15:58:44 79° W 16:03:10 10° S
Cosmos 2034 Rocket 4.1 15:55:21 10° SSE 16:01:19 56° E 16:07:19 10° NNE
Cosmos 1842 Rocket 3.6 15:58:16 10° S 16:02:40 67° E 16:07:07 10° NNE
Cosmos 2082 Rocket 3.7 16:02:00 10° SE 16:05:28 17° E 16:08:56 10° ENE
Cosmos 468 Rocket 4.4 16:03:03 10° S 16:07:52 43° ESE 16:12:46 10° NNE
Cosmos 1898 Rocket 4.3 16:03:35 10° N 16:08:08 29° ENE 16:12:37 10° ESE
Sich 1 4.4 16:05:54 10° NNE 16:08:47 17° ENE 16:11:40 10° ESE
Cosmos 1782 4.2 16:08:51 10° SE 16:11:40 19° E 16:14:29 10° NE
ISS -1.5 16:10:07 10° NNW 16:12:01 14° N 16:13:56 10° NE
Cosmos 2221 2.6 16:08:28 10° S 16:12:43 80° W 16:17:01 10° N
H-2A R/B 2.7 16:11:04 10° SE 16:15:39 32° ENE 16:20:09 10° N
COSMOS 2406 3.9 16:11:18 10° S 16:16:29 36° ESE 16:21:41 10° NE
GPS 2-04 Rocket1 4.2 16:13:54 10° SW 16:17:31 30° SSE 16:21:07 10° ESE
CORIOLIS 4.2 16:15:47 10° SSE 16:21:05 62° ENE 16:26:26 10° N
USA 276 3.2 16:18:54 10° NW 16:21:40 28° NNE 16:23:52 13° ENE
CZ-4B R/B 3.5 16:18:54 10° S 16:23:02 62° WSW 16:27:00 10° NNW
Cosmos 1634 Rocket 4.5 16:19:13 10° SSE 16:25:01 40° E 16:30:51 10° NNE
Cosmos 1340 Rocket 2.8 16:21:08 10° N 16:25:11 65° ENE 16:29:14 10° SSE
Lacrosse 5 4.1 16:21:11 10° WNW 16:25:35 30° WSW 16:29:58 10° S
PAYLOAD B 4.4 16:23:26 10° SE 16:28:48 49° ENE 16:34:11 10° N
COSMO-SKYMED 1 3.4 16:29:21 10° NE 16:33:12 30° E 16:37:01 10° SSE
Cosmos 1833 Rocket 2.7 16:28:12 10° S 16:33:44 66° ESE 16:39:19 10° NNE
Cosmos 2084 3.9 16:32:58 10° NNW 16:37:04 40° NE 16:41:18 10° ESE
CZ-2D R/B 3.4 16:33:31 10° SSE 16:37:14 50° ENE 16:40:58 10° N
ARGOS 3.8 16:33:56 10° SE 16:38:41 32° ENE 16:43:27 10° N
Cosmos 2026 Rocket 4.1 16:32:52 10° N 16:38:50 49° ENE 16:44:41 10° SSE
Cosmos 1933 3.3 16:36:51 10° S 16:40:52 67° E 16:44:53 10° NNE
Cosmos 2195 Rocket 4.5 16:35:26 10° N 16:41:32 62° E 16:47:39 10° SSE
CZ-4B R/B 3.4 16:39:36 10° SE 16:44:46 46° ENE 16:49:53 10° N
Okean O Rocket 2.3 16:41:13 10° SE 16:45:08 32° ENE 16:49:06 10° N
Meteor 1-20 Rocket 4.2 16:39:31 10° N 16:45:22 80° E 16:51:13 10° SSE
NOAA 6 4.4 16:40:47 10° S 16:45:54 70° WSW 16:51:03 10° NNW
USA 267 4.3 16:40:04 10° NE 16:45:56 37° NNW 16:51:47 10° W
Cosmos 1763 Rocket 3.5 16:41:04 10° SSW 16:46:06 79° WNW 16:51:15 10° NNE
Cosmos 2360 4.4 16:42:01 10° NNW 16:47:37 50° ENE 16:53:08 10° SE
Cosmos 1633 Rocket 4.5 16:45:00 10° NNE 16:52:06 - SE 16:47:04 19° NE
BREEZE-M DEB (TANK) 4.4 16:40:33 10° WNW 16:49:12 62° SW 16:52:16 10° SE
Cosmos 841 Rocket 3.7 16:44:44 10° S 16:49:40 47° ESE 16:53:49 14° NE
SMAP 3.8 16:46:43 10° S 16:51:17 57° W 16:55:53 10° NNW
Cosmos 1937 Rocket 3.7 16:47:52 10° N 16:53:04 50° ENE 16:58:12 10° SE
PSLV R/B 3.7 16:52:10 10° S 16:55:50 78° W 16:59:32 10° NNW
SL-08 RB Rocket 4.4 16:55:09 10° SE 16:59:15 31° ENE 17:03:19 10° N
Cosmos 1743 Rocket 4.1 16:55:40 10° NNW 16:59:56 61° W 17:04:11 10° S
USA 229 DEB 3.9 16:54:36 10° NNW 17:02:02 75° NE 17:09:52 10° SE
USA 229 3.9 16:54:42 10° NNW 17:02:08 74° NE 17:09:57 10° SE
CZ-2C R/B 2.5 16:57:12 10° NNE 17:02:23 64° ESE 17:07:30 10° S
Cosmos 44 4.1 16:59:20 10° NW 17:03:51 48° WSW 17:08:07 10° S
Meteor 2-14 Rocket 4.3 16:58:49 10° N 17:04:56 73° E 17:10:59 10° SSE
Cosmos 990 Rocket 4.4 16:59:53 10° NNW 17:05:03 67° WSW 17:10:08 10° S
Cosmos 1500 3.0 17:02:59 10° N 17:06:43 60° E 17:10:22 10° SSE
Meteor 1-14 Rocket 4.5 17:01:57 10° N 17:07:33 47° ENE 17:13:12 10° SSE
CZ-4C R/B 3.5 17:01:19 10° NNW 17:07:50 35° NE 17:11:25 25° E
Cosmos 1151 Rocket 3.2 17:05:18 10° SSE 17:09:25 47° E 17:11:12 29° NE
GEOS 3 Rocket 4.1 17:09:09 28° E 17:11:08 39° NE 17:15:57 10° NNW
Cosmos 1666 Rocket 3.8 17:07:12 10° N 17:11:30 44° ENE 17:15:42 10° SSE
Cosmos 372 Rocket 4.1 17:08:43 10° N 17:13:47 48° ENE 17:18:51 10° SE
MOS 1-B Rocket 4.2 17:10:12 10° N 17:16:03 79° WNW 17:22:42 10° SSW
Cosmos 1328 Rocket 3.9 17:13:14 10° SSE 17:17:22 41° E 17:17:22 41° E
USA 234 3.9 17:11:53 10° SSE 17:18:16 56° SW 17:24:41 10° NW
SJ-11-01 4.2 17:14:46 10° SSE 17:19:29 75° ENE 17:24:15 10° N
SKYMED 2 3.6 17:17:12 11° N 17:21:22 79° WNW 17:25:41 10° SSW
Cosmos 858 Rocket 4.4 17:18:28 10° NNW 17:23:48 86° ENE 17:29:04 10° SSE
Meteor 2-21 Rocket 4.3 17:17:46 10° N 17:23:55 77° E 17:29:58 10° SSE
ATLAS CENTAUR R/B 3.7 17:15:41 10° WSW 17:25:15 47° NW 17:27:51 24° NNE
NOSS 3-1 (A) 4.3 17:17:50 10° NW 17:25:36 78° WSW 17:34:31 10° SSE
Meteor 2-8 Rocket 4.5 17:20:12 10° SSE 17:26:09 56° E 17:31:23 14° NNE
Cosmos 1570 Rocket 4.0 17:22:00 10° S 17:27:06 54° ESE 17:28:20 44° ENE
COSMOS 2455 2.8 17:25:31 10° SSW 17:31:32 83° WNW 17:35:04 26° NNE
Cosmos 2322 Rocket 4.4 17:28:27 10° NNE 17:28:41 11° NNE 17:28:41 11° NNE
NOSS 2-2 (D) 4.4 17:28:33 10° NNW 17:33:54 61° NE 17:37:25 30° ESE
Meteor 1-5 Rocket 4.2 17:28:17 10° N 17:34:17 70° E 17:40:10 10° SSE
NOSS 2-2 (E) 4.4 17:29:21 10° NNW 17:34:57 74° NE 17:42:09 13° SE
Cosmos 2369 3.6 17:29:21 10° NNW 17:35:08 85° ENE 17:40:51 10° SSE
Cosmos 1697 Rocket 3.2 17:31:56 10° NNW 17:37:27 60° WSW 17:42:57 10° S
Cosmos 1980 Rocket 2.0 17:34:50 10° NNW 17:40:31 74° ENE 17:43:29 29° SE
Cosmos 1814 Rocket 3.8 17:35:31 10° SSW 17:40:46 84° ESE 17:42:23 46° NNE
Cosmos 1812 3.2 17:39:12 10° SSW 17:42:59 57° W 17:43:54 43° NNW
Spot 2 4.3 17:40:23 10° SSE 17:45:26 69° ENE 17:50:34 10° N
Landsat 5 4.0 17:43:53 32° N 17:45:36 57° WNW 17:49:32 10° SSW
Sich 1 4.4 17:42:37 10° NNW 17:46:36 37° W 17:50:33 10° SSW
SL-16 R/B 4.1 17:43:00 10° N 17:44:20 15° N 17:44:20 15° N
Cosmos 2082 Rocket 2.4 17:43:15 10° SSW 17:48:55 67° WNW 17:51:42 31° N
ISS -1.1 17:46:47 10° NW 17:47:25 14° NNW 17:47:25 14° NNW
H-2A R/B 3.9 17:50:26 10° SSW 17:55:01 31° W 17:59:32 10° NW
IRAS Rocket 4.2 17:56:23 64° SE 17:56:23 64° SE 18:01:24 10° S
GPS 2-04 Rocket1 4.0 17:52:40 10° WSW 17:55:45 34° SSW 17:55:45 34° SSW
Cosmos 2208 Rocket 3.9 17:51:44 10° SSW 17:57:06 81° ESE 17:57:08 81° E
Cosmos 2279 Rocket 4.4 17:51:07 10° SSW 17:57:15 62° W 18:03:25 10° N
Cosmos 2278 3.6 17:54:41 10° NNW 18:00:07 74° NNE 18:00:07 74° NNE
Cosmos 2266 Rocket 3.9 17:58:39 10° N 18:10:43 14° SSE 18:11:26 10° SSE
Meteor 2-6 Rocket 4.5 18:01:07 10° SSW 18:06:55 69° W 18:09:28 34° N
Meteor 1-10 Rocket 4.3 18:11:30 10° SSW 18:17:10 77° WSW 18:17:10 77° WSW
Okean O Rocket 3.9 18:17:56 10° SSW 18:21:30 24° W 18:25:05 10° NW
Cosmos 1655 Rocket 4.1 18:19:47 10° N 18:26:11 75° W 18:32:31 10° S
CZ-4C R/B 3.2 18:49:28 10° NW 18:56:41 67° WSW 18:56:41 67° WSW
